Regional Weather Roundup
Issued by NWS Charleston, SC

Current Version | Previous Version | Text Only | Print | Product List | Glossary Off
Versions: 1 2 3 4 5 6 7 8 9 10 11 12 13 14 15 16 17 18 19 20 21 22 23 24 25 26 27 28 29 30 31 32 33 34 35 36 37 38 39 40 41 42 43 44 45 46 47 48 49 50

000
ASUS42 KCHS 242025
RWRCHS

REGIONAL WEATHER ROUNDUP
NATIONAL WEATHER SERVICE CHARLESTON SC
400 PM EDT FRI OCT 24 2014

NOTE: "FAIR" INDICATES FEW OR NO CLOUDS BELOW 12,000 FEET WITH NO
SIGNIFICANT WEATHER AND/OR OBSTRUCTIONS TO VISIBILITY.

NOT ALL STATIONS ARE QUALITY CONTROLLED BY THE NATIONAL
WEATHER SERVICE. USE DATA WITH CAUTION...ESPECIALLY
DEWPOINT OBSERVATIONS.

SCZ027-030-031-034>040-042>050-242100-
...SOUTH CAROLINA...

CITY           SKY/WX    TMP DP  RH WIND       PRES   REMARKS
N CHARLESTON   SUNNY     76  46  34 NW5       29.98F
WATERFRONT PRK   N/A     77 N/A N/A E5          N/A
FORT JOHNSON   NOT AVBL
JOHNS ISLAND   CLEAR     72  52  49 CALM      29.98F
PINOPOLIS      NOT AVBL
MONCKS CORNER  FAIR      72  54  53 N3        29.98S
SUMMERVILLE    FAIR      73  50  43 NW3       29.99F
BEAUFORT MCAS  SUNNY     74  43  32 CALM      29.98F
BEAUFORT ARPT  FAIR      73  46  38 N3        29.97F
HILTON HEAD IS SUNNY     72  52  49 SE5       30.00F
GEORGETOWN     NOT AVBL
WALTERBORO     CLEAR     73  37  27 W3        29.99S
ORANGEBURG     SUNNY     73  44  35 SW5       29.98F
BARNWELL       FAIR      75  45  33 CALM      29.98F
AIKEN          FAIR      72  46  40 N6        30.01F
MANNING        FAIR      72  52  49 S3        29.98F
KINGSTREE      NOT AVBL
COLUMBIA       PTSUNNY   72  42  34 VRB6      29.98F
SUMTER         MOSUNNY   73  46  38 VRB6      29.97F
FLORENCE       SUNNY     71  46  40 CALM      29.98S
MYRTLE BEACH   SUNNY     70  48  46 SE9       29.98F
N MYRTLE BEACH SUNNY     67  49  52 SE7       29.97F

$$

GAZ063-065-086>088-099>101-113>116-118-119-134-136>141-150-242100-
...GEORGIA...

CITY           SKY/WX    TMP DP  RH WIND       PRES   REMARKS
SAVANNAH ARPT  SUNNY     75  41  29 VRB3      29.99F
HUNTER AAF     SUNNY     73  44  34 VRB1      29.96F
FORT STEWART   SUNNY     75  46  35 N2        29.97F
STATESBORO     NOT AVBL
SYLVANIA       CLEAR     79  48  33 CALM      29.99F
CLAXTON        FAIR      73  46  38 CALM      29.98F
THOMSON        MOSUNNY   73  54  52 N3        30.04S
AUGUSTA-BUSH   MOSUNNY   75  41  29 NE5       29.98F
AUGUSTA-DANIEL MOSUNNY   73  41  31 CALM      29.99F
SWAINSBORO     FAIR      79  45  29 MISG      29.98F
VIDALIA        SUNNY     73  45  35 CALM      29.99S
ALMA           SUNNY     74  41  30 CALM      29.97F
WAYCROSS       SUNNY     77  47  34 CALM      29.97F
JESUP          FAIR      77  46  33 CALM      29.98F
BRUNSWICK      SUNNY     73  45  35 NE6       29.98F
SAINT SIMONS   SUNNY     71  51  49 E10       29.99F

$$

SCZ027-028-034-036>038-045-046-048>050-GAZ119-141-242100-
...LAKE AND SUPPLEMENTAL COASTAL OBSERVATIONS...

STATION/POSITION TIME  TEMP    WIND        PRES    WAVE   SWELL
                       AIR SEA DIR/SP/G            HT/PER HT/PER/DIR
                 (UTC) (F)     (DEG/KT/KT) (MB)    (FT/S) (FT/S/D)
UPR LAKE MARION  NOT AVBL
WINYAH BAY       2000   67     120/  4     1015.0S
LAKE MURRAY      2000   68     190/  5/  6 1015.2S
ACE BASIN NERRS  2000   72        CALM     1015.0F
FORT PULASKI     2000   70      80/  5/  6 1015.6F
SAPELO ISLAND    NOT AVBL

$$

ANZ835-935-AMZ111-154-330-350-352-354-374-450-454-472-242100-
...C-MAN AND BUOY OBSERVATIONS...

STATION/POSITION TIME  TEMP    WIND        PRES    WAVE   SWELL
                       AIR SEA DIR/SP/G            HT/PER HT/PER/DIR
                 (UTC) (F)     (DEG/KT/KT) (MB)    (FT/S) (FT/S/D)
FOLLY BEACH CMAN 2000   70     180/  6/  7 1015.7F
BUOY 41004       2000   68 78  350/  6/  8 1015.2F   3/11   2/11
BUOY 41008       2000   69 75   30/  6/  8 1015.7F   2/11   2/ 70/11
5E ST. MARYS GA  2000      76                N/A     2/12   2/ 90/12
FRYING PAN BUOY  2000   66 73  340/  6/  6 1015.8F   3/10   3/100/10
BUOY 41025       2000   63     310/ 12/ 14 1014.0F   4/10   3/ 80/10
CAPE LOOKOUT NC  2000   66     260/  4/  5 1014.2F
BUOY 41002       1902   73 78  330/  6/ 10 1014.3    5/10   5/ 10/10
BUOY 41010       2000   74 82   40/  8/ 12 1013.3F   3/11   2/ 50/11
BUOY 41012       NOT AVBL
ST AUGUSTINE FL  2000   71      10/ 10/ 11 1015.3F
CAPERS NEARSHORE NOT AVBL
FRIPP NEARSHORE  NOT AVBL


$$



USA.gov is the U.S. government's official web portal to all federal, state and local government web resources and services.